COSMOS 2251 DEB, 35706

Orbit data source: Space-Track

COSMOS 2251 DEB, 35706 is space debris in LEO originally from a launch on Wed, 16 Jun 1993 UTC launched from the Plesetsk Missile And Space Complex (PKMTR). The debris from Iridium 33, an American commercial communications satellite, has been tracked extensively since its accidental collision with the defunct Russian satellite Cosmos 2251 in 2009. This event, occurring at high speed in low Earth orbit (LEO), generated thousands of pieces of space debris, significantly increasing the risk of further collisions. The Iridium 33 debris cloud has impacted space traffic management and orbital debris mitigation strategies, making it a subject of ongoing study in space situational awareness.

Loading next visibility...
Identifier
35706, 1993-036AQB
Orbit
LEO
Country
Flag of CISCIS
Related business
Manufacturer
Unknown
Mission
Spacecraft
Bus & Motor
Unknown
Mass
Unknown
Launch date (UTC)
1993-06-16 (33 years ago)
Launch vehicle
Unknown
Launch site
Plesetsk Missile And Space Complex (PKMTR)
Object type
Payload
Rocket body
Debris
Shape & HBR
Unknown shape, 0.1 m
Radar Cross Section
Small (<0.1 m²)

Expand to show TLE details & history
Last TLE update: 2 days ago

TLE from 2 days ago
0 COSMOS 2251 DEB
1 35706U 93036AQB 26035.51037756  .00002769  00000-0  22699-2 0  9996
2 35706  73.8926 333.9661 0341342  13.5675 347.4334 13.66121293627965
Epoch: 2026-02-04T12:14Z
TLE epoch observation values (Epoch: 2026-02-04T12:14:56.621Z)
Latitude
-0.00001°
Longitude
15.55426°
Altitude
770.174 km
Speed
7.592 km/s
True Right ascension
22h 15m 51s
True Declination
0° 00' 00"
Sunlit
Object was in daylight at epoch
Visualization orbit readout
Latitude
Unknown
Longitude
Unknown
Altitude
Unknown
Speed
Unknown
Apparent Right ascension
Unknown
Apparent Declination
Unknown
Sunlit
N/A
Visualization observer readout
Local Sidereal Time
18:01:50
Azimuth
Unknown
Elevation
Unknown
Doppler factor
Unknown
Orbital elements
Apogee altitude
1,263.469 km
Perigee altitude
759.008 km
Semi-major axis
7,389.376 km
Eccentricity
0.03413
Inclination
73.8926°
RAAN
333.9661°
Arg. of periapsis
13.5675°
True anomaly
346.54548°
Mean anomaly
347.4334°
Eccentric anomaly
346.99323°
Mean motion
3.41689 °/min
Orbital period
105.36 mins
BSTAR
0.0022699
Loading maneuver chart data...
Computing Atmospheric mass density...

Documentation

Showing up to 5 results
|